Flag for Germany Weather past 2 weeks in Singen (Hohentwiel), Baden-Württemberg, Germany

Now
59 °F

Fog.


Feels Like: 59 °F
Forecast: 47 / 78 °F
Wind: 1 mph from Southeast

Location: Konstanz

Current Time: Sep 18, 2014 at 9:43:02 AM

Latest Report: Sep 18, 2014 at 9:00 AM


Visibility: 0 mi

Pressure: 29.90 "Hg

Humidity: 97%

Dew point: 59 °F

Location of Singen (Hohentwiel)Location

Historic Weather in Singen (Hohentwiel) — Graph

°F

Singen (Hohentwiel) temperature yesterday

Maximum temperature yesterday: 76 °F (at 6:00 PM)
Minimum temperature yesterday: 57 °F (at 3:00 AM)
Average temperature yesterday: 63 °F

Past Weeks' High & Low Weather Summary

 TemperatureHumidityPressure
High79 °F (Sep 6, 5:00 PM)99% (Sep 7, 7:00 AM)30.15 "Hg (Sep 7, 7:00 AM)
Low49 °F (Sep 12, 7:00 AM)43% (Sep 6, 6:00 PM)29.80 "Hg (Sep 17, 6:00 PM)
Average62 °F82%29.98 "Hg
* Reported Sep 3 8:00 AM — Sep 18 8:00 AM, Singen (Hohentwiel), Weather by CustomWeather, © 2014

Note: Actual official high and low records may vary slightly from our data, if they occured in-between our weather recording intervals... More about our weather records

Advertising

Singen (Hohentwiel) weather history for previous 24 hours

 ConditionsComfort  
Time TempWeatherWind HumidityBarometerVisibility
8:00 AM
Sep 18
58 °FFog.1 mph99%29.90 "Hg0 mi
7:00 AM57 °FFog.1 mph99%29.90 "Hg1 mi
6:00 AM57 °FFog.1 mph99%29.89 "Hg0 mi
5:00 AM58 °FLow clouds.1 mph99%29.89 "Hg0 mi
4:00 AM58 °FFog.1 mph97%29.89 "Hg2 mi
3:00 AM59 °FFog.1 mph96%29.89 "Hg3 mi
2:00 AM60 °FFog.2 mph96%29.88 "Hg4 mi
1:00 AM60 °FClear.1 mph94%29.88 "Hg7 mi
12:00 AM62 °FClear.2 mph93%29.88 "Hg9 mi
11:00 PM
Sep 17
62 °FClear.1 mph91%29.88 "Hg13 mi
10:00 PM64 °FClear.3 mph88%29.86 "Hg15 mi
9:00 PM65 °FPassing clouds.2 mph84%29.86 "Hg19 mi
8:00 PM67 °FPassing clouds.2 mph80%29.85 "Hg19 mi
7:00 PM73 °FScattered clouds.1 mph70%29.82 "Hg19 mi
6:00 PM76 °FScattered clouds.1 mph60%29.80 "Hg16 mi
5:00 PM73 °FScattered clouds.2 mph64%29.82 "Hg16 mi
4:00 PM74 °FScattered clouds.1 mph60%29.82 "Hg16 mi
3:00 PM72 °FScattered clouds.1 mph62%29.85 "Hg12 mi
2:00 PM67 °FOvercast.1 mph70%29.88 "Hg9 mi
1:00 PM63 °FLow clouds.2 mph81%29.92 "Hg5 mi
12:00 PM60 °FFog.2 mph86%29.93 "Hg2 mi
11:00 AM60 °FFog.2 mph92%29.93 "Hg1 mi
10:00 AM58 °FFog.2 mph95%29.94 "Hg1 mi
9:00 AM58 °FLow clouds.1 mph94%29.94 "Hg1 mi
Weather by CustomWeather, © 2014

See weather overviewHow to use our weather pages